Weather History for KCAK - April, 2013

Change the Weather History Date:

Friday, April 12, 2013

  Actual Average Record
Temperature  
Mean Temperature 50 °F 48 °F  
Max Temperature 60 °F 58 °F 82 °F (1977)
Min Temperature 40 °F 38 °F 18 °F (1976)
Degree Days  
Heating Degree Days 15 17  
Month to date heating degree days 210 230  
Since 1 July heating degree days 5414 5625  
Cooling Degree Days 0 0  
Month to date cooling degree days 0 0  
Year to date cooling degree days 0 0  
Moisture  
Dew Point 46 °F    
Average Humidity 82    
Maximum Humidity 93    
Minimum Humidity 70    
Precipitation  
Precipitation 0.28 in 0.13 in 1.13 in (1997)
Month to date precipitation 2.65 1.44  
Year to date precipitation 8.90 9.34  
Snow  
Snow 0.00 in 0.10 in - ()
Month to date snowfall T 1.7  
Since 1 July snowfall 46.9 46.4  
Snow Depth 0.00 in    
Sea Level Pressure  
Sea Level Pressure 29.63 in    
Wind  
Wind Speed 13 mph (WSW)    
Max Wind Speed 28 mph    
Max Gust Speed 33 mph    
Visibility 6 miles    
Events Rain    
T = Trace of Precipitation, MM = Missing Value Source: NWS Daily Summary

Daily Weather History Graph

Daily Weather History Graph

Search for Another Location

Airport or City:

Trip Planner

Search our weather history database for the weather conditions in past years. The results will help you decide how hot, cold, wet, or windy it might be!

Date:

Astronomy

Apr. 12, 2013 Rise Set
Actual Time 6:51 AM EDT 8:02 PM EDT
Civil Twilight 6:22 AM EDT 8:30 PM EDT
Nautical Twilight 5:48 AM EDT 9:04 PM EDT
Astronomical Twilight 5:13 AM EDT 9:40 PM EDT
Moon 7:59 AM EDT (4/12) 10:33 PM EDT (4/12)
Length of Visible Light 14h 08m
Length of Day
13h 11m
Waxing Crescent, 5% of the Moon is Illuminated
Apr 12
Waxing Crescent
Apr 18
First Quarter
Apr 25
Full
May 2
Last Quarter
May 9
New

Hourly Weather History & Observations

Time (EDT) Temp. Windchill Dew Point Humidity Pressure Visibility Wind Dir Wind Speed Gust Speed Precip Events Conditions
12:15 AM 55.4 °F - 51.8 °F 88% 29.62 in 3.0 mi West 5.8 mph - 0.02 in Rain Rain
12:51 AM 54.0 °F - 52.0 °F 93% 29.59 in 4.0 mi ENE 5.8 mph - 0.05 in Rain Light Rain
1:51 AM 54.0 °F - 52.0 °F 93% 29.51 in 5.0 mi ESE 11.5 mph - 0.01 in   Mostly Cloudy
2:51 AM 55.0 °F - 53.1 °F 93% 29.50 in 4.0 mi SE 11.5 mph - 0.01 in Rain Light Rain
3:51 AM 57.0 °F - 55.0 °F 93% 29.48 in 5.0 mi SSE 12.7 mph - 0.00 in   Overcast
4:51 AM 59.0 °F - 55.9 °F 90% 29.48 in 7.0 mi South 13.8 mph - N/A   Overcast
5:30 AM 59.0 °F - 57.2 °F 94% 29.48 in 5.0 mi South 11.5 mph - 0.00 in Rain Light Rain
5:51 AM 59.0 °F - 57.0 °F 93% 29.46 in 2.0 mi South 10.4 mph - 0.04 in Rain Heavy Rain
6:11 AM 59.0 °F - 57.2 °F 94% 29.47 in 3.0 mi South 11.5 mph - 0.04 in Rain Light Rain
6:51 AM 59.0 °F - 57.0 °F 93% 29.46 in 3.0 mi SSW 11.5 mph - 0.11 in Rain Rain
7:34 AM 59.0 °F - 57.2 °F 94% 29.48 in 2.0 mi SW 12.7 mph - 0.10 in Rain Rain
7:51 AM 59.0 °F - 57.0 °F 93% 29.48 in 2.0 mi West 13.8 mph - 0.12 in Rain Light Rain
7:58 AM 57.2 °F - 53.6 °F 88% 29.50 in 4.0 mi West 18.4 mph 25.3 mph 0.00 in Rain Light Rain
8:04 AM 55.4 °F - 53.6 °F 94% 29.50 in 7.0 mi West 18.4 mph 27.6 mph 0.00 in Rain Light Rain
8:51 AM 51.1 °F - 48.0 °F 89% 29.54 in 8.0 mi West 17.3 mph 25.3 mph 0.00 in   Overcast
9:22 AM 48.2 °F - 46.4 °F 93% 29.57 in 8.0 mi West 17.3 mph 27.6 mph N/A   Overcast
9:51 AM 46.9 °F - 43.0 °F 86% 29.60 in 8.0 mi West 20.7 mph 27.6 mph N/A   Overcast
10:51 AM 45.0 °F 38.9 °F 41.0 °F 86% 29.63 in 8.0 mi West 12.7 mph 20.7 mph N/A   Overcast
11:31 AM 46.4 °F 40.4 °F 42.8 °F 87% 29.64 in 10.0 mi West 13.8 mph 24.2 mph N/A   Overcast
11:51 AM 46.9 °F - 42.1 °F 83% 29.66 in 10.0 mi WSW 13.8 mph 19.6 mph N/A   Overcast
12:51 PM 48.0 °F - 43.0 °F 83% 29.67 in 8.0 mi West 16.1 mph 25.3 mph 0.00 in Rain Light Rain
1:37 PM 48.2 °F - 41.0 °F 76% 29.66 in 10.0 mi WSW 15.0 mph 21.9 mph 0.00 in   Overcast
1:51 PM 50.0 °F - 41.0 °F 71% 29.67 in 10.0 mi SW 15.0 mph 28.8 mph N/A   Overcast
2:30 PM 46.4 °F 38.1 °F 39.2 °F 76% 29.69 in 8.0 mi West 24.2 mph 32.2 mph N/A   Overcast
2:51 PM 44.1 °F 35.4 °F 36.0 °F 73% 29.72 in 8.0 mi WSW 21.9 mph 32.2 mph N/A   Overcast
3:51 PM 44.1 °F 36.5 °F 35.1 °F 71% 29.73 in 7.0 mi West 17.3 mph 28.8 mph N/A   Overcast
4:51 PM 42.1 °F 32.8 °F 35.1 °F 76% 29.76 in 6.0 mi West 21.9 mph 28.8 mph 0.00 in Rain Light Rain
5:51 PM 41.0 °F 34.3 °F 34.0 °F 76% 29.80 in 8.0 mi West 11.5 mph 26.5 mph N/A   Overcast
6:51 PM 42.1 °F 38.4 °F 33.1 °F 70% 29.81 in 7.0 mi West 5.8 mph - N/A   Overcast
7:51 PM 41.0 °F 37.1 °F 33.1 °F 73% 29.83 in 7.0 mi West 5.8 mph - N/A   Overcast
8:51 PM 39.9 °F 34.5 °F 35.1 °F 83% 29.85 in 6.0 mi West 8.1 mph - 0.00 in   Light Drizzle
9:51 PM 39.9 °F 33.9 °F 36.0 °F 86% 29.86 in 6.0 mi SW 9.2 mph - 0.00 in   Light Drizzle
10:51 PM 39.9 °F 35.1 °F 36.0 °F 86% 29.87 in 7.0 mi SW 6.9 mph - 0.00 in   Overcast
11:51 PM 41.0 °F 36.4 °F 35.1 °F 79% 29.87 in 8.0 mi WSW 6.9 mph - N/A   Overcast